Location: Unspecified
(0.0000°N, 0.0000°E)
Time: 04:05:14
(UTC+00:00)

LightSail 2 - Pass Details

Date: 17 November 2019
Orbit: 701 x 726 km, 24.0° (Epoch: 11 November)

Event Time Altitude Azimuth Distance (km) Brightness Sun altitude
Rises 20:34:35 0° 243° (WSW) 3,073 9.3 -39.6°
Reaches altitude 10° 20:37:01 10° 242° (WSW) 2,153 8.3 -40.1°
Enters shadow 20:37:50 15° 242° (WSW) 1,850 7.9 -40.3°
